owner,sensor,date,latitude,longitude,sea_surface_height_above_sea_level,qcFlag 
WAVCIS,ioos:station:WAVCIS:CSI16:1,2011-11-01T00:00:00Z,29.4012,-89.0355,8.779,11111222 
WAVCIS,ioos:station:WAVCIS:CSI16:1,2011-11-01T01:00:00Z,29.4012,-89.0355,8.847,11111222 
WAVCIS,ioos:station:WAVCIS:CSI16:1,2011-11-01T02:00:00Z,29.4012,-89.0355,8.903,11111222 
WAVCIS,ioos:station:WAVCIS:CSI16:1,2011-11-01T03:00:00Z,29.4012,-89.0355,8.952,11111222 
WAVCIS,ioos:station:WAVCIS:CSI16:1,2011-11-01T04:00:00Z,29.4012,-89.0355,8.983,11111222 
WAVCIS,ioos:station:WAVCIS:CSI16:1,2011-11-01T05:00:00Z,29.4012,-89.0355,9.002,11111222 
WAVCIS,ioos:station:WAVCIS:CSI16:1,2011-11-01T06:00:00Z,29.4012,-89.0355,9.004,11111222 
WAVCIS,ioos:station:WAVCIS:CSI16:1,2011-11-01T07:00:00Z,29.4012,-89.0355,8.993,11111222 
WAVCIS,ioos:station:WAVCIS:CSI16:1,2011-11-01T08:00:00Z,29.4012,-89.0355,8.966,11111222 
WAVCIS,ioos:station:WAVCIS:CSI16:1,2011-11-01T09:00:00Z,29.4012,-89.0355,8.922,11111222 
WAVCIS,ioos:station:WAVCIS:CSI16:1,2011-11-01T10:00:00Z,29.4012,-89.0355,8.871,11111222 
WAVCIS,ioos:station:WAVCIS:CSI16:1,2011-11-01T11:00:00Z,29.4012,-89.0355,8.819,11111222 
WAVCIS,ioos:station:WAVCIS:CSI16:1,2011-11-01T12:00:00Z,29.4012,-89.0355,8.761,11111222 
WAVCIS,ioos:station:WAVCIS:CSI16:1,2011-11-01T13:00:00Z,29.4012,-89.0355,8.706,11111222 
WAVCIS,ioos:station:WAVCIS:CSI16:1,2011-11-01T14:00:00Z,29.4012,-89.0355,8.659,11111222 
WAVCIS,ioos:station:WAVCIS:CSI16:1,2011-11-01T15:00:00Z,29.4012,-89.0355,8.633,11111222 
WAVCIS,ioos:station:WAVCIS:CSI16:1,2011-11-01T16:00:00Z,29.4012,-89.0355,8.609,11111222 
WAVCIS,ioos:station:WAVCIS:CSI16:1,2011-11-01T17:00:00Z,29.4012,-89.0355,8.608,11111222 
WAVCIS,ioos:station:WAVCIS:CSI16:1,2011-11-01T18:00:00Z,29.4012,-89.0355,8.599,11111222 
WAVCIS,ioos:station:WAVCIS:CSI16:1,2011-11-01T19:00:00Z,29.4012,-89.0355,8.603,11111222 
WAVCIS,ioos:station:WAVCIS:CSI16:1,2011-11-01T20:00:00Z,29.4012,-89.0355,8.637,11111222 
WAVCIS,ioos:station:WAVCIS:CSI16:1,2011-11-01T21:00:00Z,29.4012,-89.0355,8.677,11111222 
WAVCIS,ioos:station:WAVCIS:CSI16:1,2011-11-01T22:00:00Z,29.4012,-89.0355,8.722,11111222 
WAVCIS,ioos:station:WAVCIS:CSI16:1,2011-11-01T23:00:00Z,29.4012,-89.0355,8.767,11111222 
WAVCIS,ioos:station:WAVCIS:CSI16:1,2011-11-02T00:00:00Z,29.4012,-89.0355,8.829,11111222 
WAVCIS,ioos:station:WAVCIS:CSI16:1,2011-11-02T01:00:00Z,29.4012,-89.0355,8.885,11111222 
WAVCIS,ioos:station:WAVCIS:CSI16:1,2011-11-02T02:00:00Z,29.4012,-89.0355,8.93,11111222 
WAVCIS,ioos:station:WAVCIS:CSI16:1,2011-11-02T03:00:00Z,29.4012,-89.0355,8.966,11111222 
WAVCIS,ioos:station:WAVCIS:CSI16:1,2011-11-02T04:00:00Z,29.4012,-89.0355,8.996,11111222 
WAVCIS,ioos:station:WAVCIS:CSI16:1,2011-11-02T05:00:00Z,29.4012,-89.0355,9.01,11111222 
WAVCIS,ioos:station:WAVCIS:CSI16:1,2011-11-02T06:00:00Z,29.4012,-89.0355,9.009,11111222 
WAVCIS,ioos:station:WAVCIS:CSI16:1,2011-11-02T07:00:00Z,29.4012,-89.0355,9.0,11111222 
WAVCIS,ioos:station:WAVCIS:CSI16:1,2011-11-02T08:00:00Z,29.4012,-89.0355,8.979,11111222 
WAVCIS,ioos:station:WAVCIS:CSI16:1,2011-11-02T09:00:00Z,29.4012,-89.0355,8.954,11111222 
WAVCIS,ioos:station:WAVCIS:CSI16:1,2011-11-02T10:00:00Z,29.4012,-89.0355,8.926,11111222 
WAVCIS,ioos:station:WAVCIS:CSI16:1,2011-11-02T11:00:00Z,29.4012,-89.0355,8.888,11111222 
WAVCIS,ioos:station:WAVCIS:CSI16:1,2011-11-02T12:00:00Z,29.4012,-89.0355,8.841,11111222 
WAVCIS,ioos:station:WAVCIS:CSI16:1,2011-11-02T13:00:00Z,29.4012,-89.0355,8.78,11111222 
WAVCIS,ioos:station:WAVCIS:CSI16:1,2011-11-02T14:00:00Z,29.4012,-89.0355,8.733,11111222 
WAVCIS,ioos:station:WAVCIS:CSI16:1,2011-11-02T15:00:00Z,29.4012,-89.0355,8.691,11111222 
WAVCIS,ioos:station:WAVCIS:CSI16:1,2011-11-02T16:00:00Z,29.4012,-89.0355,8.663,11111222 
WAVCIS,ioos:station:WAVCIS:CSI16:1,2011-11-02T17:00:00Z,29.4012,-89.0355,8.638,11111222 
WAVCIS,ioos:station:WAVCIS:CSI16:1,2011-11-02T18:00:00Z,29.4012,-89.0355,8.618,11111222 
WAVCIS,ioos:station:WAVCIS:CSI16:1,2011-11-02T19:00:00Z,29.4012,-89.0355,8.604,11111222 
WAVCIS,ioos:station:WAVCIS:CSI16:1,2011-11-02T20:00:00Z,29.4012,-89.0355,8.62,11111222 
WAVCIS,ioos:station:WAVCIS:CSI16:1,2011-11-02T21:00:00Z,29.4012,-89.0355,8.648,11111222 
WAVCIS,ioos:station:WAVCIS:CSI16:1,2011-11-02T22:00:00Z,29.4012,-89.0355,8.686,11111222 
WAVCIS,ioos:station:WAVCIS:CSI16:1,2011-11-02T23:00:00Z,29.4012,-89.0355,8.738,11111222 
WAVCIS,ioos:station:WAVCIS:CSI16:1,2011-11-03T00:00:00Z,29.4012,-89.0355,8.785,11111222 
WAVCIS,ioos:station:WAVCIS:CSI16:1,2011-11-03T01:00:00Z,29.4012,-89.0355,8.825,11111222 
WAVCIS,ioos:station:WAVCIS:CSI16:1,2011-11-03T02:00:00Z,29.4012,-89.0355,8.864,11111222 
WAVCIS,ioos:station:WAVCIS:CSI16:1,2011-11-03T03:00:00Z,29.4012,-89.0355,8.891,11111222 
WAVCIS,ioos:station:WAVCIS:CSI16:1,2011-11-03T04:00:00Z,29.4012,-89.0355,8.923,11111222 
WAVCIS,ioos:station:WAVCIS:CSI16:1,2011-11-03T05:00:00Z,29.4012,-89.0355,8.953,11111222 
WAVCIS,ioos:station:WAVCIS:CSI16:1,2011-11-03T06:00:00Z,29.4012,-89.0355,8.965,11111222 
WAVCIS,ioos:station:WAVCIS:CSI16:1,2011-11-03T07:00:00Z,29.4012,-89.0355,8.976,11111222 
WAVCIS,ioos:station:WAVCIS:CSI16:1,2011-11-03T08:00:00Z,29.4012,-89.0355,8.958,11111222 
WAVCIS,ioos:station:WAVCIS:CSI16:1,2011-11-03T09:00:00Z,29.4012,-89.0355,8.946,11111222 
WAVCIS,ioos:station:WAVCIS:CSI16:1,2011-11-03T10:00:00Z,29.4012,-89.0355,8.933,11111222 
WAVCIS,ioos:station:WAVCIS:CSI16:1,2011-11-03T11:00:00Z,29.4012,-89.0355,8.904,11111222 
WAVCIS,ioos:station:WAVCIS:CSI16:1,2011-11-03T12:00:00Z,29.4012,-89.0355,8.877,11111222 
WAVCIS,ioos:station:WAVCIS:CSI16:1,2011-11-03T13:00:00Z,29.4012,-89.0355,8.853,11111222 
WAVCIS,ioos:station:WAVCIS:CSI16:1,2011-11-03T14:00:00Z,29.4012,-89.0355,8.818,11111222 
WAVCIS,ioos:station:WAVCIS:CSI16:1,2011-11-03T15:00:00Z,29.4012,-89.0355,8.761,11111222 
WAVCIS,ioos:station:WAVCIS:CSI16:1,2011-11-03T16:00:00Z,29.4012,-89.0355,8.737,11111222 
WAVCIS,ioos:station:WAVCIS:CSI16:1,2011-11-03T17:00:00Z,29.4012,-89.0355,8.72,11111222 
WAVCIS,ioos:station:WAVCIS:CSI16:1,2011-11-03T18:00:00Z,29.4012,-89.0355,8.694,11111222 
WAVCIS,ioos:station:WAVCIS:CSI16:1,2011-11-03T19:00:00Z,29.4012,-89.0355,8.676,11111222 
WAVCIS,ioos:station:WAVCIS:CSI16:1,2011-11-03T20:00:00Z,29.4012,-89.0355,8.664,11111222 
WAVCIS,ioos:station:WAVCIS:CSI16:1,2011-11-03T21:00:00Z,29.4012,-89.0355,8.636,11111222 
WAVCIS,ioos:station:WAVCIS:CSI16:1,2011-11-03T22:00:00Z,29.4012,-89.0355,8.641,11111222 
WAVCIS,ioos:station:WAVCIS:CSI16:1,2011-11-03T23:00:00Z,29.4012,-89.0355,8.672,11111222 
WAVCIS,ioos:station:WAVCIS:CSI16:1,2011-11-04T00:00:00Z,29.4012,-89.0355,8.701,11111222 
WAVCIS,ioos:station:WAVCIS:CSI16:1,2011-11-04T01:00:00Z,29.4012,-89.0355,8.705,11111222 
WAVCIS,ioos:station:WAVCIS:CSI16:1,2011-11-04T02:00:00Z,29.4012,-89.0355,8.758,11111222 
WAVCIS,ioos:station:WAVCIS:CSI16:1,2011-11-04T03:00:00Z,29.4012,-89.0355,8.757,11111222 
WAVCIS,ioos:station:WAVCIS:CSI16:1,2011-11-04T04:00:00Z,29.4012,-89.0355,8.762,11111222 
WAVCIS,ioos:station:WAVCIS:CSI16:1,2011-11-04T05:00:00Z,29.4012,-89.0355,8.768,11111222 
WAVCIS,ioos:station:WAVCIS:CSI16:1,2011-11-04T06:00:00Z,29.4012,-89.0355,8.771,11111222 
WAVCIS,ioos:station:WAVCIS:CSI16:1,2011-11-04T07:00:00Z,29.4012,-89.0355,8.752,11111222 
WAVCIS,ioos:station:WAVCIS:CSI16:1,2011-11-04T08:00:00Z,29.4012,-89.0355,8.767,11111222 
WAVCIS,ioos:station:WAVCIS:CSI16:1,2011-11-04T09:00:00Z,29.4012,-89.0355,8.773,11111222 
WAVCIS,ioos:station:WAVCIS:CSI16:1,2011-11-04T10:00:00Z,29.4012,-89.0355,8.787,11111222 
WAVCIS,ioos:station:WAVCIS:CSI16:1,2011-11-04T11:00:00Z,29.4012,-89.0355,8.798,11111222 
WAVCIS,ioos:station:WAVCIS:CSI16:1,2011-11-04T12:00:00Z,29.4012,-89.0355,8.78,11111222 
WAVCIS,ioos:station:WAVCIS:CSI16:1,2011-11-04T13:00:00Z,29.4012,-89.0355,8.772,11111222 
WAVCIS,ioos:station:WAVCIS:CSI16:1,2011-11-04T14:00:00Z,29.4012,-89.0355,8.786,11111222 
WAVCIS,ioos:station:WAVCIS:CSI16:1,2011-11-04T15:00:00Z,29.4012,-89.0355,8.755,11111222 
WAVCIS,ioos:station:WAVCIS:CSI16:1,2011-11-04T16:00:00Z,29.4012,-89.0355,8.749,11111222 
WAVCIS,ioos:station:WAVCIS:CSI16:1,2011-11-04T17:00:00Z,29.4012,-89.0355,8.743,11111222 
WAVCIS,ioos:station:WAVCIS:CSI16:1,2011-11-04T18:00:00Z,29.4012,-89.0355,8.739,11111222 
WAVCIS,ioos:station:WAVCIS:CSI16:1,2011-11-04T19:00:00Z,29.4012,-89.0355,8.708,11111222 
WAVCIS,ioos:station:WAVCIS:CSI16:1,2011-11-04T20:00:00Z,29.4012,-89.0355,8.714,11111222 
WAVCIS,ioos:station:WAVCIS:CSI16:1,2011-11-04T21:00:00Z,29.4012,-89.0355,8.724,11111222 
WAVCIS,ioos:station:WAVCIS:CSI16:1,2011-11-04T22:00:00Z,29.4012,-89.0355,8.743,11111222 
WAVCIS,ioos:station:WAVCIS:CSI16:1,2011-11-04T23:00:00Z,29.4012,-89.0355,8.744,11111222 
WAVCIS,ioos:station:WAVCIS:CSI16:1,2011-11-05T00:00:00Z,29.4012,-89.0355,8.772,11111222 
WAVCIS,ioos:station:WAVCIS:CSI16:1,2011-11-05T01:00:00Z,29.4012,-89.0355,8.779,11111222 
WAVCIS,ioos:station:WAVCIS:CSI16:1,2011-11-05T02:00:00Z,29.4012,-89.0355,8.787,11111222 
WAVCIS,ioos:station:WAVCIS:CSI16:1,2011-11-05T03:00:00Z,29.4012,-89.0355,8.786,11111222 
WAVCIS,ioos:station:WAVCIS:CSI16:1,2011-11-05T04:00:00Z,29.4012,-89.0355,8.771,11111222 
WAVCIS,ioos:station:WAVCIS:CSI16:1,2011-11-05T05:00:00Z,29.4012,-89.0355,8.763,11111222 
WAVCIS,ioos:station:WAVCIS:CSI16:1,2011-11-05T06:00:00Z,29.4012,-89.0355,8.752,11111222 
WAVCIS,ioos:station:WAVCIS:CSI16:1,2011-11-05T07:00:00Z,29.4012,-89.0355,8.746,11111222 
WAVCIS,ioos:station:WAVCIS:CSI16:1,2011-11-05T08:00:00Z,29.4012,-89.0355,8.737,11111222 
WAVCIS,ioos:station:WAVCIS:CSI16:1,2011-11-05T09:00:00Z,29.4012,-89.0355,8.74,11111222 
WAVCIS,ioos:station:WAVCIS:CSI16:1,2011-11-05T10:00:00Z,29.4012,-89.0355,8.738,11111222 
WAVCIS,ioos:station:WAVCIS:CSI16:1,2011-11-05T11:00:00Z,29.4012,-89.0355,8.75,11111222 
WAVCIS,ioos:station:WAVCIS:CSI16:1,2011-11-05T12:00:00Z,29.4012,-89.0355,8.768,11111222 
WAVCIS,ioos:station:WAVCIS:CSI16:1,2011-11-05T13:00:00Z,29.4012,-89.0355,8.772,11111222 
WAVCIS,ioos:station:WAVCIS:CSI16:1,2011-11-05T14:00:00Z,29.4012,-89.0355,8.783,11111222 
WAVCIS,ioos:station:WAVCIS:CSI16:1,2011-11-05T15:00:00Z,29.4012,-89.0355,8.776,11111222 
WAVCIS,ioos:station:WAVCIS:CSI16:1,2011-11-05T16:00:00Z,29.4012,-89.0355,8.792,11111222 
WAVCIS,ioos:station:WAVCIS:CSI16:1,2011-11-05T17:00:00Z,29.4012,-89.0355,8.776,11111222 
WAVCIS,ioos:station:WAVCIS:CSI16:1,2011-11-05T18:00:00Z,29.4012,-89.0355,8.784,11111222 
WAVCIS,ioos:station:WAVCIS:CSI16:1,2011-11-05T19:00:00Z,29.4012,-89.0355,8.78,11111222 
WAVCIS,ioos:station:WAVCIS:CSI16:1,2011-11-05T20:00:00Z,29.4012,-89.0355,8.795,11111222 
WAVCIS,ioos:station:WAVCIS:CSI16:1,2011-11-05T21:00:00Z,29.4012,-89.0355,8.797,11111222 
WAVCIS,ioos:station:WAVCIS:CSI16:1,2011-11-05T22:00:00Z,29.4012,-89.0355,8.82,11111222 
WAVCIS,ioos:station:WAVCIS:CSI16:1,2011-11-05T23:00:00Z,29.4012,-89.0355,8.838,11111222 
WAVCIS,ioos:station:WAVCIS:CSI16:1,2011-11-06T00:00:00Z,29.4012,-89.0355,8.865,11111222 
WAVCIS,ioos:station:WAVCIS:CSI16:1,2011-11-06T01:00:00Z,29.4012,-89.0355,8.884,11111222 
WAVCIS,ioos:station:WAVCIS:CSI16:1,2011-11-06T02:00:00Z,29.4012,-89.0355,8.891,11111222 
WAVCIS,ioos:station:WAVCIS:CSI16:1,2011-11-06T03:00:00Z,29.4012,-89.0355,8.882,11111222 
WAVCIS,ioos:station:WAVCIS:CSI16:1,2011-11-06T04:00:00Z,29.4012,-89.0355,8.877,11111222 
WAVCIS,ioos:station:WAVCIS:CSI16:1,2011-11-06T05:00:00Z,29.4012,-89.0355,8.847,11111222 
WAVCIS,ioos:station:WAVCIS:CSI16:1,2011-11-06T06:00:00Z,29.4012,-89.0355,8.836,11111222 
WAVCIS,ioos:station:WAVCIS:CSI16:1,2011-11-06T07:00:00Z,29.4012,-89.0355,8.842,11111222 
WAVCIS,ioos:station:WAVCIS:CSI16:1,2011-11-06T08:00:00Z,29.4012,-89.0355,8.834,11111222 
WAVCIS,ioos:station:WAVCIS:CSI16:1,2011-11-06T09:00:00Z,29.4012,-89.0355,8.827,11111222 
WAVCIS,ioos:station:WAVCIS:CSI16:1,2011-11-06T10:00:00Z,29.4012,-89.0355,8.825,11111222 
WAVCIS,ioos:station:WAVCIS:CSI16:1,2011-11-06T11:00:00Z,29.4012,-89.0355,8.84,11111222 
WAVCIS,ioos:station:WAVCIS:CSI16:1,2011-11-06T12:00:00Z,29.4012,-89.0355,8.848,11111222 
WAVCIS,ioos:station:WAVCIS:CSI16:1,2011-11-06T13:00:00Z,29.4012,-89.0355,8.863,11111222 
WAVCIS,ioos:station:WAVCIS:CSI16:1,2011-11-06T14:00:00Z,29.4012,-89.0355,8.886,11111222 
WAVCIS,ioos:station:WAVCIS:CSI16:1,2011-11-06T15:00:00Z,29.4012,-89.0355,8.902,11111222 
WAVCIS,ioos:station:WAVCIS:CSI16:1,2011-11-06T16:00:00Z,29.4012,-89.0355,8.901,11111222 
WAVCIS,ioos:station:WAVCIS:CSI16:1,2011-11-06T17:00:00Z,29.4012,-89.0355,8.902,11111222 
WAVCIS,ioos:station:WAVCIS:CSI16:1,2011-11-06T18:00:00Z,29.4012,-89.0355,8.914,11111222 
WAVCIS,ioos:station:WAVCIS:CSI16:1,2011-11-06T19:00:00Z,29.4012,-89.0355,8.902,11111222 
WAVCIS,ioos:station:WAVCIS:CSI16:1,2011-11-06T20:00:00Z,29.4012,-89.0355,8.921,11111222 
WAVCIS,ioos:station:WAVCIS:CSI16:1,2011-11-06T21:00:00Z,29.4012,-89.0355,8.942,11111222 
WAVCIS,ioos:station:WAVCIS:CSI16:1,2011-11-06T22:00:00Z,29.4012,-89.0355,8.958,11111222 
WAVCIS,ioos:station:WAVCIS:CSI16:1,2011-11-06T23:00:00Z,29.4012,-89.0355,8.97,11111222 
WAVCIS,ioos:station:WAVCIS:CSI16:1,2011-11-07T00:00:00Z,29.4012,-89.0355,8.976,11111222 
WAVCIS,ioos:station:WAVCIS:CSI16:1,2011-11-07T01:00:00Z,29.4012,-89.0355,8.974,11111222 
WAVCIS,ioos:station:WAVCIS:CSI16:1,2011-11-07T02:00:00Z,29.4012,-89.0355,8.952,11111222 
WAVCIS,ioos:station:WAVCIS:CSI16:1,2011-11-07T03:00:00Z,29.4012,-89.0355,8.943,11111222 
WAVCIS,ioos:station:WAVCIS:CSI16:1,2011-11-07T04:00:00Z,29.4012,-89.0355,8.909,11111222 
WAVCIS,ioos:station:WAVCIS:CSI16:1,2011-11-07T05:00:00Z,29.4012,-89.0355,8.872,11111222 
WAVCIS,ioos:station:WAVCIS:CSI16:1,2011-11-07T06:00:00Z,29.4012,-89.0355,8.827,11111222 
WAVCIS,ioos:station:WAVCIS:CSI16:1,2011-11-07T07:00:00Z,29.4012,-89.0355,8.787,11111222 
WAVCIS,ioos:station:WAVCIS:CSI16:1,2011-11-07T08:00:00Z,29.4012,-89.0355,8.758,11111222 
WAVCIS,ioos:station:WAVCIS:CSI16:1,2011-11-07T09:00:00Z,29.4012,-89.0355,8.747,11111222 
WAVCIS,ioos:station:WAVCIS:CSI16:1,2011-11-07T10:00:00Z,29.4012,-89.0355,8.731,11111222 
WAVCIS,ioos:station:WAVCIS:CSI16:1,2011-11-07T11:00:00Z,29.4012,-89.0355,8.742,11111222 
WAVCIS,ioos:station:WAVCIS:CSI16:1,2011-11-07T12:00:00Z,29.4012,-89.0355,8.76,11111222 
WAVCIS,ioos:station:WAVCIS:CSI16:1,2011-11-07T13:00:00Z,29.4012,-89.0355,8.803,11111222 
WAVCIS,ioos:station:WAVCIS:CSI16:1,2011-11-07T14:00:00Z,29.4012,-89.0355,8.833,11111222 
WAVCIS,ioos:station:WAVCIS:CSI16:1,2011-11-07T15:00:00Z,29.4012,-89.0355,8.867,11111222 
WAVCIS,ioos:station:WAVCIS:CSI16:1,2011-11-07T16:00:00Z,29.4012,-89.0355,8.894,11111222 
WAVCIS,ioos:station:WAVCIS:CSI16:1,2011-11-07T17:00:00Z,29.4012,-89.0355,8.91,11111222 
WAVCIS,ioos:station:WAVCIS:CSI16:1,2011-11-07T18:00:00Z,29.4012,-89.0355,8.922,11111222 
WAVCIS,ioos:station:WAVCIS:CSI16:1,2011-11-07T19:00:00Z,29.4012,-89.0355,8.936,11111222 
WAVCIS,ioos:station:WAVCIS:CSI16:1,2011-11-07T20:00:00Z,29.4012,-89.0355,8.962,11111222 
WAVCIS,ioos:station:WAVCIS:CSI16:1,2011-11-07T21:00:00Z,29.4012,-89.0355,8.997,11111222 
WAVCIS,ioos:station:WAVCIS:CSI16:1,2011-11-07T22:00:00Z,29.4012,-89.0355,9.012,11111222 
WAVCIS,ioos:station:WAVCIS:CSI16:1,2011-11-07T23:00:00Z,29.4012,-89.0355,9.036,11111222 
WAVCIS,ioos:station:WAVCIS:CSI16:1,2011-11-08T00:00:00Z,29.4012,-89.0355,9.042,11111222 
WAVCIS,ioos:station:WAVCIS:CSI16:1,2011-11-08T01:00:00Z,29.4012,-89.0355,9.046,11111222 
WAVCIS,ioos:station:WAVCIS:CSI16:1,2011-11-08T02:00:00Z,29.4012,-89.0355,9.05,11111222 
WAVCIS,ioos:station:WAVCIS:CSI16:1,2011-11-08T03:00:00Z,29.4012,-89.0355,9.016,11111222 
WAVCIS,ioos:station:WAVCIS:CSI16:1,2011-11-08T04:00:00Z,29.4012,-89.0355,8.971,11111222 
WAVCIS,ioos:station:WAVCIS:CSI16:1,2011-11-08T05:00:00Z,29.4012,-89.0355,8.919,11111222 
WAVCIS,ioos:station:WAVCIS:CSI16:1,2011-11-08T06:00:00Z,29.4012,-89.0355,8.859,11111222 
WAVCIS,ioos:station:WAVCIS:CSI16:1,2011-11-08T07:00:00Z,29.4012,-89.0355,8.814,11111222 
WAVCIS,ioos:station:WAVCIS:CSI16:1,2011-11-08T08:00:00Z,29.4012,-89.0355,8.784,11111222 
WAVCIS,ioos:station:WAVCIS:CSI16:1,2011-11-08T09:00:00Z,29.4012,-89.0355,8.748,11111222 
WAVCIS,ioos:station:WAVCIS:CSI16:1,2011-11-08T10:00:00Z,29.4012,-89.0355,8.726,11111222 
WAVCIS,ioos:station:WAVCIS:CSI16:1,2011-11-08T11:00:00Z,29.4012,-89.0355,8.726,11111222 
WAVCIS,ioos:station:WAVCIS:CSI16:1,2011-11-08T12:00:00Z,29.4012,-89.0355,8.733,11111222 
WAVCIS,ioos:station:WAVCIS:CSI16:1,2011-11-08T13:00:00Z,29.4012,-89.0355,8.752,11111222 
WAVCIS,ioos:station:WAVCIS:CSI16:1,2011-11-08T14:00:00Z,29.4012,-89.0355,8.786,11111222 
WAVCIS,ioos:station:WAVCIS:CSI16:1,2011-11-08T15:00:00Z,29.4012,-89.0355,8.82,11111222 
WAVCIS,ioos:station:WAVCIS:CSI16:1,2011-11-08T16:00:00Z,29.4012,-89.0355,8.869,11111222 
WAVCIS,ioos:station:WAVCIS:CSI16:1,2011-11-08T17:00:00Z,29.4012,-89.0355,8.89,11111222 
WAVCIS,ioos:station:WAVCIS:CSI16:1,2011-11-08T18:00:00Z,29.4012,-89.0355,8.905,11111222 
WAVCIS,ioos:station:WAVCIS:CSI16:1,2011-11-08T19:00:00Z,29.4012,-89.0355,8.93,11111222 
WAVCIS,ioos:station:WAVCIS:CSI16:1,2011-11-08T20:00:00Z,29.4012,-89.0355,8.963,11111222 
WAVCIS,ioos:station:WAVCIS:CSI16:1,2011-11-08T21:00:00Z,29.4012,-89.0355,8.996,11111222 
WAVCIS,ioos:station:WAVCIS:CSI16:1,2011-11-08T22:00:00Z,29.4012,-89.0355,9.033,11111222 
WAVCIS,ioos:station:WAVCIS:CSI16:1,2011-11-08T23:00:00Z,29.4012,-89.0355,9.064,11111222 
WAVCIS,ioos:station:WAVCIS:CSI16:1,2011-11-09T00:00:00Z,29.4012,-89.0355,9.09,11111222 
WAVCIS,ioos:station:WAVCIS:CSI16:1,2011-11-09T01:00:00Z,29.4012,-89.0355,9.102,11111222 
WAVCIS,ioos:station:WAVCIS:CSI16:1,2011-11-09T02:00:00Z,29.4012,-89.0355,9.098,11111222 
WAVCIS,ioos:station:WAVCIS:CSI16:1,2011-11-09T03:00:00Z,29.4012,-89.0355,9.071,11111222 
WAVCIS,ioos:station:WAVCIS:CSI16:1,2011-11-09T04:00:00Z,29.4012,-89.0355,9.025,11111222 
WAVCIS,ioos:station:WAVCIS:CSI16:1,2011-11-09T05:00:00Z,29.4012,-89.0355,8.978,11111222 
WAVCIS,ioos:station:WAVCIS:CSI16:1,2011-11-09T06:00:00Z,29.4012,-89.0355,8.899,11111222 
WAVCIS,ioos:station:WAVCIS:CSI16:1,2011-11-09T07:00:00Z,29.4012,-89.0355,8.824,11111222 
WAVCIS,ioos:station:WAVCIS:CSI16:1,2011-11-09T08:00:00Z,29.4012,-89.0355,8.779,11111222 
WAVCIS,ioos:station:WAVCIS:CSI16:1,2011-11-09T09:00:00Z,29.4012,-89.0355,8.728,11111222 
WAVCIS,ioos:station:WAVCIS:CSI16:1,2011-11-09T10:00:00Z,29.4012,-89.0355,8.695,11111222 
WAVCIS,ioos:station:WAVCIS:CSI16:1,2011-11-09T11:00:00Z,29.4012,-89.0355,8.705,11111222 
WAVCIS,ioos:station:WAVCIS:CSI16:1,2011-11-09T12:00:00Z,29.4012,-89.0355,8.682,11111222 
WAVCIS,ioos:station:WAVCIS:CSI16:1,2011-11-09T13:00:00Z,29.4012,-89.0355,8.708,11111222 
WAVCIS,ioos:station:WAVCIS:CSI16:1,2011-11-09T14:00:00Z,29.4012,-89.0355,8.739,11111222 
WAVCIS,ioos:station:WAVCIS:CSI16:1,2011-11-09T15:00:00Z,29.4012,-89.0355,8.786,11111222 
WAVCIS,ioos:station:WAVCIS:CSI16:1,2011-11-09T16:00:00Z,29.4012,-89.0355,8.822,11111222 
WAVCIS,ioos:station:WAVCIS:CSI16:1,2011-11-09T17:00:00Z,29.4012,-89.0355,8.859,11111222 
WAVCIS,ioos:station:WAVCIS:CSI16:1,2011-11-09T18:00:00Z,29.4012,-89.0355,8.876,11111222 
WAVCIS,ioos:station:WAVCIS:CSI16:1,2011-11-09T19:00:00Z,29.4012,-89.0355,8.895,11111222 
WAVCIS,ioos:station:WAVCIS:CSI16:1,2011-11-09T20:00:00Z,29.4012,-89.0355,8.959,11111222 
WAVCIS,ioos:station:WAVCIS:CSI16:1,2011-11-09T21:00:00Z,29.4012,-89.0355,8.998,11111222 
WAVCIS,ioos:station:WAVCIS:CSI16:1,2011-11-09T22:00:00Z,29.4012,-89.0355,9.007,11111222 
WAVCIS,ioos:station:WAVCIS:CSI16:1,2011-11-09T23:00:00Z,29.4012,-89.0355,9.023,11111222 
WAVCIS,ioos:station:WAVCIS:CSI16:1,2011-11-10T00:00:00Z,29.4012,-89.0355,9.07,11111222 
WAVCIS,ioos:station:WAVCIS:CSI16:1,2011-11-10T01:00:00Z,29.4012,-89.0355,9.069,11111222 
WAVCIS,ioos:station:WAVCIS:CSI16:1,2011-11-10T02:00:00Z,29.4012,-89.0355,9.088,11111222 
WAVCIS,ioos:station:WAVCIS:CSI16:1,2011-11-10T03:00:00Z,29.4012,-89.0355,9.091,11111222 
WAVCIS,ioos:station:WAVCIS:CSI16:1,2011-11-10T04:00:00Z,29.4012,-89.0355,9.079,11111222 
WAVCIS,ioos:station:WAVCIS:CSI16:1,2011-11-10T05:00:00Z,29.4012,-89.0355,8.995,11111222 
WAVCIS,ioos:station:WAVCIS:CSI16:1,2011-11-10T06:00:00Z,29.4012,-89.0355,8.896,11111222 
WAVCIS,ioos:station:WAVCIS:CSI16:1,2011-11-10T07:00:00Z,29.4012,-89.0355,8.812,11111222 
WAVCIS,ioos:station:WAVCIS:CSI16:1,2011-11-10T08:00:00Z,29.4012,-89.0355,8.762,11111222 
WAVCIS,ioos:station:WAVCIS:CSI16:1,2011-11-10T09:00:00Z,29.4012,-89.0355,8.71,11111222 
WAVCIS,ioos:station:WAVCIS:CSI16:1,2011-11-10T10:00:00Z,29.4012,-89.0355,8.676,11111222 
WAVCIS,ioos:station:WAVCIS:CSI16:1,2011-11-10T11:00:00Z,29.4012,-89.0355,8.653,11111222 
WAVCIS,ioos:station:WAVCIS:CSI16:1,2011-11-10T12:00:00Z,29.4012,-89.0355,8.64,11111222 
WAVCIS,ioos:station:WAVCIS:CSI16:1,2011-11-10T13:00:00Z,29.4012,-89.0355,8.646,11111222 
WAVCIS,ioos:station:WAVCIS:CSI16:1,2011-11-10T14:00:00Z,29.4012,-89.0355,8.712,11111222 
WAVCIS,ioos:station:WAVCIS:CSI16:1,2011-11-10T15:00:00Z,29.4012,-89.0355,8.753,11111222 
WAVCIS,ioos:station:WAVCIS:CSI16:1,2011-11-10T16:00:00Z,29.4012,-89.0355,8.799,11111222 
WAVCIS,ioos:station:WAVCIS:CSI16:1,2011-11-10T17:00:00Z,29.4012,-89.0355,8.795,11111222 
WAVCIS,ioos:station:WAVCIS:CSI16:1,2011-11-10T18:00:00Z,29.4012,-89.0355,8.863,11111222 
WAVCIS,ioos:station:WAVCIS:CSI16:1,2011-11-10T19:00:00Z,29.4012,-89.0355,8.873,11111222 
WAVCIS,ioos:station:WAVCIS:CSI16:1,2011-11-10T20:00:00Z,29.4012,-89.0355,8.914,11111222 
WAVCIS,ioos:station:WAVCIS:CSI16:1,2011-11-10T21:00:00Z,29.4012,-89.0355,8.931,11111222 
WAVCIS,ioos:station:WAVCIS:CSI16:1,2011-11-10T22:00:00Z,29.4012,-89.0355,8.973,11111222 
WAVCIS,ioos:station:WAVCIS:CSI16:1,2011-11-10T23:00:00Z,29.4012,-89.0355,9.025,11111222 
WAVCIS,ioos:station:WAVCIS:CSI16:1,2011-11-11T00:00:00Z,29.4012,-89.0355,9.074,11111222 
WAVCIS,ioos:station:WAVCIS:CSI16:1,2011-11-11T01:00:00Z,29.4012,-89.0355,9.103,11111222 
WAVCIS,ioos:station:WAVCIS:CSI16:1,2011-11-11T02:00:00Z,29.4012,-89.0355,9.1,11111222 
WAVCIS,ioos:station:WAVCIS:CSI16:1,2011-11-11T03:00:00Z,29.4012,-89.0355,9.085,11111222 
WAVCIS,ioos:station:WAVCIS:CSI16:1,2011-11-11T04:00:00Z,29.4012,-89.0355,9.049,11111222 
WAVCIS,ioos:station:WAVCIS:CSI16:1,2011-11-11T05:00:00Z,29.4012,-89.0355,9.009,11111222 
WAVCIS,ioos:station:WAVCIS:CSI16:1,2011-11-11T06:00:00Z,29.4012,-89.0355,8.933,11111222 
WAVCIS,ioos:station:WAVCIS:CSI16:1,2011-11-11T07:00:00Z,29.4012,-89.0355,8.854,11111222 
WAVCIS,ioos:station:WAVCIS:CSI16:1,2011-11-11T08:00:00Z,29.4012,-89.0355,8.766,11111222 
WAVCIS,ioos:station:WAVCIS:CSI16:1,2011-11-11T09:00:00Z,29.4012,-89.0355,8.687,11111222 
WAVCIS,ioos:station:WAVCIS:CSI16:1,2011-11-11T10:00:00Z,29.4012,-89.0355,8.633,11111222 
WAVCIS,ioos:station:WAVCIS:CSI16:1,2011-11-11T11:00:00Z,29.4012,-89.0355,8.584,11111222 
WAVCIS,ioos:station:WAVCIS:CSI16:1,2011-11-11T12:00:00Z,29.4012,-89.0355,8.571,11111222 
WAVCIS,ioos:station:WAVCIS:CSI16:1,2011-11-11T13:00:00Z,29.4012,-89.0355,8.592,11111222 
WAVCIS,ioos:station:WAVCIS:CSI16:1,2011-11-11T14:00:00Z,29.4012,-89.0355,8.612,11111222 
WAVCIS,ioos:station:WAVCIS:CSI16:1,2011-11-11T15:00:00Z,29.4012,-89.0355,8.627,11111222 
WAVCIS,ioos:station:WAVCIS:CSI16:1,2011-11-11T16:00:00Z,29.4012,-89.0355,8.662,11111222 
WAVCIS,ioos:station:WAVCIS:CSI16:1,2011-11-11T17:00:00Z,29.4012,-89.0355,8.701,11111222 
WAVCIS,ioos:station:WAVCIS:CSI16:1,2011-11-11T18:00:00Z,29.4012,-89.0355,8.731,11111222 
WAVCIS,ioos:station:WAVCIS:CSI16:1,2011-11-11T19:00:00Z,29.4012,-89.0355,8.765,11111222 
WAVCIS,ioos:station:WAVCIS:CSI16:1,2011-11-11T20:00:00Z,29.4012,-89.0355,8.815,11111222 
WAVCIS,ioos:station:WAVCIS:CSI16:1,2011-11-11T21:00:00Z,29.4012,-89.0355,8.853,11111222 
WAVCIS,ioos:station:WAVCIS:CSI16:1,2011-11-11T22:00:00Z,29.4012,-89.0355,8.904,11111222 
WAVCIS,ioos:station:WAVCIS:CSI16:1,2011-11-11T23:00:00Z,29.4012,-89.0355,8.968,11111222 
WAVCIS,ioos:station:WAVCIS:CSI16:1,2011-11-12T00:00:00Z,29.4012,-89.0355,9.002,11111222 
WAVCIS,ioos:station:WAVCIS:CSI16:1,2011-11-12T01:00:00Z,29.4012,-89.0355,9.03,11111222 
WAVCIS,ioos:station:WAVCIS:CSI16:1,2011-11-12T02:00:00Z,29.4012,-89.0355,9.043,11111222 
WAVCIS,ioos:station:WAVCIS:CSI16:1,2011-11-12T03:00:00Z,29.4012,-89.0355,9.013,11111222 
WAVCIS,ioos:station:WAVCIS:CSI16:1,2011-11-12T05:00:00Z,29.4012,-89.0355,8.961,11111222 